Volver al catálogo

GORIZONT 14

ActivoComunicacionesGEO
NORAD 17969·PAYLOAD·🇷🇺 Russia

Lanzado May 11, 1987 desde Baikonur Cosmodrome

Loading…

TLE

ActualizadoSource: Space-Track

Época: Sep 14, 2026, 12:52 UTC

1 17969U 87040A   26257.53652558 -.00000191  00000-0  00000-0 0  9994
2 17969  10.5815 319.1740 0028878 218.1323 174.0430  0.97660651120734

Sigue GORIZONT 14 en tiempo real con AllMySat

Download on the App Store